Probability
0 0 0 0 0 0 0 0 0 0 0 0 0 0 0 0 0 0 0 0 0 0 0 0 0 0 0 0 0 0 0 0 0 0 0 0 0 0 0 0 0 0 0
0 0 0 0 0 0 0 0 0 0 0 0 0 0 0 0 0 0 0 0 0 0 0 0 0 0 0 0 0 0 0 0 0 0 0 0 0 0 0 0 0 0 0
0 0 0 0 0 0 0 0 0 0 0 0 0 0 0 0 0 0 0 0 0 0 0 0 0 0 0 0 0 0 0 0 0 0 0 0 0 0 0 0 0 0 0
0 0 0 0 0 0 0 0 0 0 0 0 0 0 0 0 0 0 0 0 0 0 0 0 0 0 0 0 0 0 0 0 0 0 0 0 0 0 0 0 0 0 0
0 0 0 0 0 0 0 0 0 0 0 0 0 0 0 0 0 0 0 0 0 0 0 0 0 0 0 0 0 0 0 0 0 0 0 0 0 0 0 0 0 0 0
0 0 0 0 0 0 0 0 0 0 0 0 0 0 0 0 0 0 0 0 0 0 0 0 0 0 0 0 0 0 0 0 0 0 0 0 0 0 0 0 0 0 0
0 0 0 0 0 0 0 0 0 0 0 0 0 0 0 0 0 0 0 0 0 0 0 0 0 0 0 0 0 0 0 0 0 0 0 0 0 0 0 0 0 0 0
0 0 0 0 0 0 0 0 0 0 0 0 0 0 0 0 0 0 0 0 0 0 0 0 0 0 0 0 0 0 0 0 0 0 0 0 0 0 0 0 0 0 0
0 0 0 0 0 0 0 0 0 0 0 0 0 0 0 0 0 0 0 0 0 0 0 0 0 0 0 0 0 0 0 0 0 0 0 0 0 0 0 0 0 0 0
0 0 0 0 0 0 0 0 0 0 0 0 0 0 0 0 0 0 0 0 0 0 0 0 0 0 0 0 0 0 0 0 0 0 0 0 0 0 0 0 0 0 0
0 0 0 0 0 0 0 0 0 0 0 0 0 0 0 0 0 0 0 0 0 0 0 0 0 0 0 0 0 0 0 0 0 0 0 0 0 0 0 0 0 0 0
0 0 0 0 0 0 0 0 0 0 0 0 0 0 0 0 0 0 0 0 0 0 0 0 0 0 0 0 0 0 0 0 0 0 0 0 0 0 0 0 0 0 0
0 0 0 0 0 0 0 0 0 0 0 0 0 0 0 0 0 0 0 0 0 0 0 0 0 0 0 0 0 0 0 0 0 0 0 0 0 0 0 0 0 0 0
0 0 0 0 0 0 0 0 0 0 0 0 0 0 0 0 0 0 0 0 0 0 0 0 0 0 0 0 0 0 0 0 0 0 0 0 0 0 0 0 0 0 0
0 0 0 0 0 0 0 0 0 0 0 0 0 0 0 0 0 0 0 0 0 0 0 0 0 0 0 0 0 0 0 0 0 0 0 0 0 0 0 0 0 0 0
0 0 0 0 0 0 0 0 0 0 0 0 0 0 0 0 0 0 0 0 0 0 0 0 0 0 0 0 0 0 0 0 0 0 0 0 0 0 0 0 0 0 0
0 0 0 0 0 0 0 0 0 0 0 0 0 0 0 0 0 0 0 0 0 0 0 0 0 0 0 0 0 0 0 0 0 0 0 0 0 0 0 0 0 0 0
0 0 0 0 0 0 0 0 0 0 0 0 0 0 0 0 0 0 0 0 0 0 0 0 0 0 0 0 0 0 0 0 0 0 0 0 0 0 0 0 0 0 0
0 0 0 0 0 0 0 0 0 0 0 0 0 0 0 0 0 0 0 0 0 0 0 0 0 0 0 0 0 0 0 0 0 0 0 0 0 0 0 0 0 0 0
0 0 0 0 0 0 0 0 0 0 0 0 0 0 0 0 0 0 0 0 0 0 0 0 0 0 0 0 0 0 0 0 0 0 0 0 0 0 0 0 0 0 0
0 0 0 0 0 0 0 0 0 0 0 0 0 0 0 0 0 0 0 0 0 0 0 0 0 0 0 0 0 0 0 0 0 0 0 0 0 0 0 0 0 0 0
0 0 0 0 0 0 0 0 0 0 0 0 0 0 0 0 0 0 0 0 0 0 0 0 0 0 0 0 0 0 0 0 0 0 0 0 0 0 0 0 0 0 0
0 0 0 0 0 0 0 0 0 0 0 0 0 0 0 0 0 0 0 0 0 0 0 0 0 0 0 0 0 0 0 0 0 0 0 0 0 0 0 0 0 0 0
0 0 0 0 0 0 0 0 0 0 0 0 0 0 0 0 0 0 0 0 0 0 0 0 0 0 0 0 0 0 0 0 0 0 0 0 0 0 0 0 0 0 0
0 0 0 0 0 0 0 0 0 0 0 0 0 0 0 0 0 0 0 0 0 0 0 0 0 0 0 0 0 0 0 0 0 0 0 0 0 0 0 0 0 0 0
0 0 0 0 0 0 0 0 0 0 0 0 0 0 0 0 0 0 0 0 0 0 0 0 0 0 0 0 0 0 0 0 0 0 0 0 0 0 0 0 0 0 0
Height
5762 5756 5750 5745 5741 5737 5735 5732 5730 5728 5725 5723 5721 5719 5718 5716 5715 5715 5715 5716 5717 5719 5720 5722 5723 5725 5726 5727 5728 5730 5732 5734 5735 5736 5737 5739 5742 5744 5747 5749 5751 5753 5754
5754 5748 5742 5737 5733 5729 5725 5723 5720 5717 5714 5712 5709 5707 5705 5704 5704 5703 5704 5706 5708 5710 5713 5715 5716 5718 5720 5721 5723 5725 5726 5727 5729 5730 5732 5734 5736 5738 5740 5742 5743 5745 5746
5747 5741 5735 5730 5725 5721 5717 5714 5711 5708 5705 5702 5699 5696 5695 5694 5694 5694 5695 5697 5700 5703 5706 5708 5710 5712 5714 5716 5718 5720 5721 5722 5724 5725 5727 5729 5730 5732 5733 5735 5736 5736 5737
5739 5733 5728 5722 5718 5714 5710 5707 5704 5700 5697 5694 5691 5689 5687 5686 5686 5687 5688 5691 5693 5696 5699 5701 5704 5706 5708 5711 5713 5714 5716 5717 5718 5720 5722 5723 5724 5725 5726 5727 5728 5728 5728
5730 5726 5721 5716 5711 5707 5704 5701 5697 5694 5691 5688 5686 5683 5682 5681 5681 5681 5683 5685 5688 5690 5693 5696 5698 5701 5703 5705 5707 5709 5711 5712 5713 5715 5716 5717 5718 5719 5719 5719 5719 5719 5719
5721 5717 5713 5709 5705 5701 5698 5695 5692 5689 5687 5684 5681 5679 5678 5677 5678 5679 5679 5681 5684 5687 5689 5691 5694 5696 5698 5700 5702 5704 5706 5707 5708 5709 5710 5711 5711 5712 5711 5711 5711 5710 5709
5712 5708 5705 5702 5698 5695 5692 5690 5688 5685 5683 5681 5679 5677 5676 5675 5676 5676 5678 5679 5681 5683 5685 5687 5690 5692 5694 5696 5698 5699 5701 5702 5704 5704 5705 5705 5705 5704 5704 5703 5702 5701 5700
5702 5699 5696 5694 5691 5688 5686 5685 5683 5681 5680 5678 5677 5675 5674 5674 5674 5675 5676 5677 5679 5680 5682 5684 5686 5688 5690 5692 5694 5695 5697 5698 5699 5699 5699 5699 5698 5697 5696 5695 5694 5692 5691
5690 5689 5687 5685 5683 5681 5680 5679 5678 5677 5676 5675 5674 5673 5672 5672 5672 5673 5674 5675 5676 5678 5680 5682 5684 5685 5687 5689 5691 5692 5693 5694 5694 5694 5694 5693 5692 5691 5690 5688 5686 5684 5681
5678 5677 5676 5676 5675 5674 5673 5673 5672 5672 5672 5672 5671 5671 5670 5670 5670 5670 5671 5673 5674 5676 5678 5680 5682 5683 5685 5686 5687 5688 5689 5690 5690 5690 5689 5689 5687 5685 5683 5680 5677 5674 5671
5663 5664 5665 5665 5665 5665 5666 5666 5666 5667 5668 5668 5668 5668 5668 5668 5668 5668 5669 5670 5672 5674 5676 5678 5679 5681 5682 5684 5685 5685 5686 5686 5686 5686 5685 5683 5681 5679 5676 5673 5670 5666 5662
5646 5649 5652 5653 5655 5656 5657 5658 5660 5661 5663 5664 5664 5665 5665 5666 5666 5667 5668 5669 5671 5673 5674 5676 5678 5679 5680 5681 5682 5683 5683 5683 5682 5682 5680 5679 5676 5674 5670 5667 5663 5659 5655
5628 5633 5637 5639 5643 5646 5648 5650 5653 5655 5657 5659 5660 5661 5663 5664 5665 5666 5667 5668 5670 5671 5673 5675 5676 5677 5678 5679 5679 5680 5680 5680 5679 5678 5676 5674 5672 5668 5665 5661 5657 5653 5649
5608 5615 5621 5626 5631 5635 5639 5642 5646 5649 5651 5654 5656 5658 5660 5661 5663 5665 5666 5667 5668 5670 5671 5673 5674 5675 5676 5676 5677 5677 5677 5677 5676 5674 5672 5670 5667 5664 5661 5657 5653 5649 5645
5590 5598 5606 5612 5618 5624 5629 5634 5638 5642 5645 5648 5651 5654 5656 5659 5661 5663 5664 5666 5667 5668 5669 5670 5672 5672 5673 5674 5674 5674 5674 5673 5672 5671 5669 5666 5664 5661 5657 5654 5650 5645 5641
5573 5582 5590 5598 5605 5612 5619 5625 5630 5635 5639 5642 5646 5649 5652 5655 5658 5660 5662 5663 5664 5666 5667 5668 5669 5669 5670 5671 5671 5671 5671 5670 5670 5668 5666 5664 5661 5658 5655 5651 5647 5643 5638
5558 5567 5576 5584 5593 5600 5608 5615 5622 5627 5632 5636 5640 5644 5648 5651 5654 5656 5658 5660 5661 5662 5663 5665 5666 5666 5667 5667 5667 5668 5668 5668 5667 5665 5663 5661 5659 5656 5653 5649 5645 5640 5636
5545 5554 5563 5572 5581 5590 5598 5606 5613 5620 5625 5630 5635 5639 5643 5646 5649 5652 5654 5656 5657 5658 5660 5661 5662 5662 5663 5663 5664 5665 5665 5665 5664 5663 5661 5659 5657 5654 5651 5647 5643 5639 5634
5535 5543 5552 5560 5570 5580 5589 5597 5605 5612 5618 5624 5629 5633 5637 5641 5644 5647 5649 5651 5653 5654 5655 5656 5657 5658 5659 5660 5660 5661 5662 5662 5661 5660 5658 5656 5654 5652 5649 5645 5641 5637 5632
5525 5534 5543 5551 5561 5571 5580 5589 5597 5605 5612 5618 5623 5628 5632 5635 5639 5642 5644 5646 5647 5649 5650 5652 5653 5654 5655 5656 5657 5658 5658 5658 5657 5656 5655 5653 5651 5649 5646 5642 5639 5635 5630
5517 5526 5535 5544 5553 5563 5573 5582 5590 5598 5605 5612 5617 5622 5626 5630 5633 5636 5639 5641 5642 5644 5645 5647 5648 5649 5650 5651 5653 5653 5654 5654 5653 5652 5651 5649 5647 5645 5642 5639 5636 5632 5628
5511 5520 5529 5538 5547 5557 5566 5575 5584 5592 5599 5605 5611 5616 5621 5625 5628 5631 5633 5635 5637 5639 5640 5642 5643 5644 5645 5646 5647 5648 5649 5649 5648 5647 5646 5645 5643 5640 5638 5635 5632 5628 5624
5505 5515 5524 5533 5543 5552 5561 5569 5578 5586 5592 5599 5605 5611 5615 5619 5622 5625 5628 5630 5632 5634 5635 5636 5638 5639 5640 5641 5642 5643 5643 5643 5643 5642 5641 5639 5637 5635 5633 5631 5628 5624 5620
5501 5511 5520 5530 5539 5548 5557 5565 5573 5581 5587 5593 5600 5605 5610 5614 5617 5620 5622 5625 5627 5628 5630 5631 5633 5634 5634 5635 5636 5637 5637 5637 5636 5636 5635 5633 5631 5630 5627 5625 5622 5618 5614
5498 5508 5518 5527 5537 5545 5554 5562 5569 5576 5583 5588 5594 5600 5605 5609 5612 5615 5617 5619 5621 5623 5625 5626 5627 5628 5629 5629 5630 5631 5631 5631 5630 5629 5628 5627 5625 5623 5621 5618 5615 5611 5607
5496 5506 5516 5526 5535 5543 5551 5559 5566 5572 5578 5584 5589 5594 5599 5603 5607 5609 5612 5614 5616 5618 5619 5621 5622 5623 5624 5624 5624 5625 5625 5624 5624 5623 5621 5620 5618 5616 5614 5611 5608 5604 5600
Wind_Speed
41 41 39 38 37 36 37 38 39 40 41 41 41 41 40 39 37 36 36 34 33 32 30 29 28 26 24 23 23 24 24 25 25 25 25 24 25 26 26 26 27 27 29
41 40 39 37 35 35 35 36 37 37 37 37 37 36 34 33 32 31 31 29 28 27 26 26 25 24 23 22 22 23 23 22 21 22 23 23 23 24 25 26 27 28 29
40 39 38 36 35 34 33 34 34 33 32 32 31 29 27 25 26 25 25 26 26 25 25 24 24 23 23 21 20 20 19 19 19 19 21 22 22 23 24 26 27 28 30
39 38 37 35 33 32 32 32 31 29 27 26 25 23 21 20 20 21 23 24 25 25 25 25 24 23 21 18 17 17 16 16 17 18 19 20 22 23 25 27 28 30 32
39 38 36 33 31 31 30 29 27 25 23 22 21 18 17 18 19 20 22 22 23 24 24 22 21 19 17 16 15 15 15 15 17 18 20 22 23 25 26 28 30 32 33
39 37 35 33 30 29 28 27 24 22 21 20 17 15 14 15 16 17 18 19 20 20 19 18 17 15 15 15 15 15 15 16 18 19 21 22 24 25 26 28 29 30 32
39 37 35 32 29 27 26 24 22 19 18 16 14 11 11 11 12 14 15 16 17 17 15 14 13 14 14 14 14 14 15 16 17 18 19 20 21 22 24 25 27 28 30
39 37 34 31 28 26 24 22 20 18 16 15 13 11 9 9 10 12 12 12 12 12 11 10 10 11 11 11 12 12 13 14 15 15 16 17 19 20 21 23 25 27 29
40 38 34 31 28 25 23 21 19 17 15 14 12 10 10 9 10 10 10 10 10 9 8 8 8 8 8 9 9 10 11 11 12 12 13 15 17 20 22 24 26 28 30
41 38 35 32 29 25 23 21 18 16 15 14 13 11 10 9 8 8 8 9 8 7 7 7 7 7 7 7 7 8 8 9 10 11 13 15 18 21 23 25 27 29 31
42 38 36 33 30 26 23 21 19 16 14 13 12 11 9 7 6 5 6 7 7 6 6 6 6 6 6 6 6 6 7 8 10 12 14 16 18 20 22 24 25 27 28
45 40 37 34 31 28 25 22 19 17 15 13 12 10 8 7 6 7 7 7 6 6 7 7 7 7 6 6 6 6 7 8 10 12 13 15 16 18 20 22 23 24 25
47 42 37 34 33 30 27 24 21 18 16 14 12 11 9 9 9 9 9 8 8 8 8 7 7 7 7 6 6 6 7 8 9 11 12 14 16 19 21 22 23 23 24
47 43 38 36 34 32 29 26 22 19 16 15 14 13 12 11 11 10 10 10 9 9 9 8 8 7 7 7 6 6 6 7 9 10 12 15 17 19 21 23 24 24 24
46 43 40 38 36 35 31 28 25 21 19 17 16 15 14 13 12 12 11 11 10 10 9 9 9 8 8 7 6 6 5 6 8 10 12 15 18 20 22 24 25 25 25
42 42 40 38 38 37 34 30 28 24 21 20 19 18 16 15 13 13 12 11 11 10 10 10 9 9 9 8 6 5 5 6 7 9 12 15 18 20 23 24 26 26 26
40 40 41 38 38 38 36 33 30 27 24 22 21 20 18 16 15 14 13 12 11 10 10 10 10 10 9 8 6 5 5 5 6 8 11 14 17 20 22 25 27 28 29
38 41 40 39 38 38 38 35 32 29 27 25 23 22 20 18 16 15 14 12 12 11 11 11 11 10 10 9 7 7 6 6 6 8 10 13 16 19 21 24 27 29 30
36 39 40 38 38 39 39 37 35 32 29 27 26 23 21 19 17 16 15 14 13 13 12 12 12 12 11 10 10 9 9 8 8 8 9 11 14 18 20 23 26 29 31
34 36 38 38 39 39 39 38 36 32 30 28 26 24 22 20 18 17 16 15 14 14 14 14 14 13 13 13 13 12 12 11 10 10 10 12 14 17 20 23 26 28 30
34 35 37 39 39 39 39 38 36 33 31 28 27 25 23 20 18 17 16 15 15 15 15 15 15 15 15 15 15 14 14 13 13 13 14 14 16 18 21 23 26 28 30
36 36 37 37 38 38 38 38 36 34 32 30 28 25 22 20 18 17 16 16 16 16 16 16 16 16 16 16 16 16 17 17 17 17 17 18 19 20 22 24 26 28 30
36 36 35 35 36 36 37 37 37 35 33 31 28 25 22 20 19 18 17 17 17 17 16 16 16 16 16 17 18 18 19 19 19 20 20 21 22 23 24 25 27 29 31
36 36 35 35 35 35 35 35 35 34 32 31 29 27 24 22 20 19 18 18 17 17 16 16 16 17 17 17 19 19 20 21 22 22 23 23 24 25 26 27 29 30 32
36 35 35 34 34 35 34 34 33 31 31 30 29 27 25 23 21 20 19 18 17 17 16 16 15 16 16 17 18 19 20 22 23 24 24 24 25 27 28 29 30 32 34
36 35 35 34 33 32 32 31 31 30 29 29 29 27 25 23 21 20 19 17 17 16 16 15 14 14 15 16 17 19 20 21 23 23 24 25 25 27 28 30 32 34 36
Wind_Direction
316 315 312 307 302 297 293 291 289 288 288 287 286 285 283 279 276 273 270 267 264 264 264 265 266 265 262 254 250 249 246 245 243 241 238 238 240 241 244 247 250 253 255
315 315 313 309 304 299 296 294 293 291 290 289 287 286 282 277 271 268 263 258 256 254 256 257 256 252 249 245 246 248 248 246 242 241 243 244 247 249 253 255 258 259 260
314 314 313 310 304 300 298 297 295 294 293 292 290 287 280 273 265 259 251 246 245 244 245 244 242 241 243 246 248 249 249 247 245 247 249 252 255 257 258 260 261 262 263
311 312 312 309 305 301 299 299 298 296 297 296 294 289 277 267 255 249 241 237 233 232 234 234 236 237 240 244 246 248 251 253 256 257 257 259 260 261 262 264 265 266 267
308 309 310 307 304 301 300 301 300 299 298 301 299 290 274 257 250 241 231 226 224 226 225 229 231 233 238 241 246 251 254 258 260 262 263 264 265 267 268 269 270 270 271
303 305 306 304 300 298 298 300 300 298 298 301 301 290 274 255 243 234 224 222 220 224 224 224 229 237 242 246 253 258 260 262 264 266 268 270 271 272 273 274 275 275 276
299 300 301 299 297 294 294 296 297 297 297 300 301 293 271 252 239 231 227 228 226 225 225 228 233 239 246 251 257 262 265 265 267 270 272 274 276 278 279 280 281 282 281
293 294 294 293 290 288 288 289 291 292 294 298 297 291 279 262 242 235 232 231 229 231 235 238 243 247 251 256 261 264 266 269 271 273 276 280 282 284 286 288 288 288 287
286 287 286 285 281 281 279 281 283 285 288 294 295 288 279 268 257 248 242 238 235 233 233 237 243 246 250 255 259 261 265 268 272 278 284 289 293 295 296 296 295 293 292
277 279 279 276 272 271 270 270 272 275 277 284 288 285 277 265 254 243 232 226 222 220 222 228 233 238 242 248 253 258 264 273 282 290 296 300 303 305 305 304 303 302 300
267 270 271 266 262 260 260 259 259 261 265 272 277 275 268 256 241 225 215 213 209 206 210 217 221 226 231 239 247 260 275 286 296 302 307 311 313 314 314 314 313 312 309
258 261 262 258 254 251 249 248 248 249 252 259 262 258 250 236 214 202 200 200 199 199 201 207 214 221 228 237 253 271 287 300 307 313 317 322 326 328 328 327 326 324 320
251 252 253 250 245 242 240 238 238 238 241 242 243 240 231 217 207 203 205 208 206 201 203 209 217 225 233 246 261 277 292 305 316 324 330 337 340 341 342 341 339 335 329
244 243 244 242 238 234 232 229 228 228 228 228 228 225 218 213 208 205 206 208 209 210 214 220 227 234 242 251 263 277 292 314 329 338 345 350 352 352 351 350 347 343 337
239 235 235 236 233 227 225 222 220 220 219 218 218 215 212 210 210 210 212 213 214 217 222 229 236 241 247 254 262 275 303 329 342 349 356 1 1 0 358 357 355 351 346
234 229 227 227 226 222 219 217 215 215 213 211 212 212 211 212 212 214 216 219 222 226 230 234 238 243 248 252 257 274 308 330 342 353 1 6 6 4 3 2 1 358 354
229 224 221 220 221 217 215 212 211 210 209 208 209 212 213 214 216 219 221 223 226 230 232 234 238 244 247 249 252 267 289 312 334 349 360 5 6 6 6 5 4 3 360
223 221 219 217 215 213 210 208 206 206 206 206 208 212 214 216 219 223 226 229 232 234 235 237 240 243 246 247 251 257 267 287 312 336 351 359 1 2 3 4 4 3 2
218 218 217 214 210 209 206 204 204 204 205 205 208 212 216 218 222 226 231 235 238 239 240 241 243 243 245 244 247 252 258 273 291 316 335 346 352 354 356 357 358 359 359
214 213 213 210 205 205 204 202 202 203 203 205 208 212 216 219 224 229 234 238 242 243 244 245 246 246 245 243 243 248 255 267 279 297 313 325 335 341 345 348 351 353 353
210 210 209 205 203 202 202 202 202 201 202 204 208 212 215 219 225 231 237 240 243 244 245 246 247 249 248 246 246 248 255 265 275 287 299 310 319 328 334 338 342 345 347
206 205 204 203 200 200 200 200 200 200 202 204 208 211 215 221 227 234 238 241 243 244 245 245 247 251 251 249 250 253 259 267 275 283 291 300 308 316 323 328 333 337 340
201 200 199 197 196 198 199 199 200 202 203 205 208 212 216 223 229 235 240 243 244 244 244 245 246 250 253 251 252 254 259 266 274 281 287 293 299 306 313 319 324 329 334
195 195 193 192 193 196 196 197 200 203 205 207 211 214 220 226 232 238 243 245 245 243 244 245 247 251 255 255 254 256 261 268 275 280 284 288 293 300 307 313 319 324 328
186 186 187 189 191 193 194 197 201 205 206 208 212 217 222 227 234 240 242 244 242 242 242 245 248 253 256 258 259 260 265 270 275 279 282 286 291 297 303 310 315 320 324
179 180 182 183 185 188 192 197 201 202 205 208 212 217 223 228 233 235 237 238 238 239 240 243 247 252 255 258 261 264 268 272 276 279 282 286 291 296 301 307 312 317 321